DW9768 Weather Reports


Display with metric or nautical units.
time (UTC)temp
F
wind
direction
speed
MPH
gust
MPH
rain 1hr
in
rain 24hr
in
rain mn
in
humidity
%
barometer
mb
20260505193034 41 298 3.0 10.0 0.00 0.00 0.00 67 1014.5
20260505191525 42 313 4.0 8.0 0.00 0.00 0.00 68 1014.4
20260505190023 42 289 6.0 12.0 0.00 0.00 0.00 68 1014.2
20260505184523 43 330 3.0 10.0 0.00 0.00 0.00 65 1014.1
20260505183031 43 329 4.0 11.0 0.00 0.00 0.00 66 1014.0
20260505181520 43 318 3.0 10.0 0.00 0.00 0.00 63 1014.1
20260505180021 43 321 4.0 9.0 0.00 0.00 0.00 60 1014.0
20260505174519 44 286 4.0 12.0 0.00 0.00 0.00 62 1014.0
20260505173019 43 269 4.0 14.0 0.00 0.00 0.00 70 1013.9
20260505171519 44 317 9.0 13.0 0.00 0.00 0.00 70 1014.0
20260505170020 44 312 8.0 14.0 0.00 0.00 0.00 61 1013.9
20260505164517 44 342 6.0 12.0 0.00 0.00 0.00 61 1013.9
20260505163017 43 275 4.0 10.0 0.00 0.00 0.00 69 1013.9
20260505161516 44 245 8.0 13.0 0.00 0.00 0.00 63 1013.9
20260505153012 45 289 7.0 17.0 0.00 0.01 0.00 65 1013.9
20260505151511 44 323 8.0 14.0 0.00 0.01 0.00 64 1014.0
20260505124609 41 257 8.0 14.0 0.00 0.01 0.00 79 1014.2
20260505123059 42 294 12.0 18.0 0.00 0.01 0.00 77 1014.2
20260505121553 43 292 7.0 13.0 0.00 0.01 0.00 70 1014.0
20260505114652 42 227 5.0 10.0 0.00 0.01 0.00 68 1013.9
20260505113109 42 249 6.0 10.0 0.00 0.01 0.00 68 1013.9
20260505111547 42 246 4.0 9.0 0.00 0.01 0.00 66 1013.8
20260505101542 40 262 4.0 8.0 0.00 0.01 0.00 74 1013.7
20260505100040 40 264 6.0 10.0 0.00 0.01 0.00 75 1013.7
20260505094539 40 263 6.0 10.0 0.00 0.01 0.00 74 1013.8
20260505093038 40 297 6.0 11.0 0.00 0.01 0.00 74 1013.9
20260505091536 41 299 6.0 10.0 0.00 0.01 0.00 66 1013.8
20260505090034 41 304 3.0 8.0 0.00 0.01 0.00 64 1013.7
20260505084543 42 157 1.0 3.0 0.00 0.01 0.00 60 1013.5
20260505083031 42 180 1.0 3.0 0.00 0.01 0.00 60 1013.4
20260505081529 43 145 1.0 4.0 0.00 0.01 0.00 59 1013.3
20260505080026 42 74 1.0 3.0 0.00 0.01 0.00 62 1013.1
20260505074523 41 314 2.0 6.0 0.00 0.01 0.00 61 1013.0
20260505073025 41 221 0.0 0.0 0.00 0.01 0.00 63 1013.1
20260505071520 41 247 0.0 0.0 0.00 0.01 0.00 66 1013.0
20260505070016 41 281 0.0 0.0 0.00 0.01 0.00 67 1013.0
20260505064512 41 321 0.0 0.0 0.00 0.01 0.00 67 1013.0
20260505063011 40 184 0.0 0.0 0.00 0.01 0.00 67 1012.9
20260505061515 40 205 0.0 0.0 0.00 0.01 0.00 70 1013.0
20260505060010 40 152 0.0 0.0 0.00 0.01 0.00 73 1013.1
20260505054505 40 130 0.0 0.0 0.00 0.01 0.00 77 1013.1
20260505053005 39 45 0.0 0.0 0.00 0.01 0.00 80 1013.2
20260505051600 39 348 0.0 0.0 0.00 0.01 0.00 80 1013.2
20260505051502 39 348 0.0 0.0 0.00 0.01 0.00 81 1013.2
20260505050109 38 5 0.0 0.0 0.00 0.01 0.00 80 1013.1
20260505041555 37 338 0.0 0.0 0.00 0.01 0.00 81 1012.6
20260505040054 37 338 0.0 1.0 0.00 0.01 0.00 82 1012.5
20260505034614 37 338 0.0 2.0 0.00 0.01 0.00 83 1012.3
20260505033056 36 338 0.0 0.0 0.00 0.01 0.00 83 1012.5
20260505031555 36 338 0.0 0.0 0.00 0.01 0.00 82 1012.6
20260505030053 35 338 0.0 2.0 0.00 0.01 0.00 82 1012.6
20260505024551 35 338 0.0 1.0 0.00 0.01 0.00 82 1012.5
20260505023052 34 338 0.0 3.0 0.00 0.01 0.00 83 1012.6
20260505021549 34 338 0.0 3.0 0.00 0.01 0.00 82 1012.7
20260505020045 35 340 2.0 3.0 0.00 0.01 0.00 82 1012.6
20260505014544 35 344 0.0 0.0 0.00 0.01 0.00 81 1012.5
20260505013044 35 344 0.0 0.0 0.00 0.01 0.00 81 1012.6
20260505011603 35 338 0.0 0.0 0.00 0.01 0.00 81 1012.4
20260505010046 35 338 0.0 0.0 0.00 0.01 0.00 81 1012.6
20260505004541 36 338 0.0 0.0 0.00 0.01 0.00 80 1012.6
20260505003040 36 338 0.0 0.0 0.00 0.01 0.00 81 1012.7
20260505001539 36 344 0.0 0.0 0.00 0.01 0.00 80 1012.6
20260505000046 36 344 0.0 2.0 0.00 0.01 0.00 81 1012.6
20260504234535 36 338 0.0 2.0 0.00 0.01 0.00 80 1012.5
20260504233040 38 321 0.0 1.0 0.00 0.01 0.00 79 1012.4
20260504231534 38 11 0.0 3.0 0.00 0.01 0.00 79 1012.6
20260504230033 38 26 2.0 4.0 0.00 0.01 0.00 79 1012.6
20260504224533 38 257 0.0 3.0 0.00 0.01 0.00 80 1012.6
20260504223029 37 330 0.0 0.0 0.00 0.01 0.00 79 1012.5
20260504221526 38 326 0.0 4.0 0.00 0.01 0.00 78 1012.5
20260504220023 38 306 2.0 5.0 0.00 0.01 0.00 78 1012.4
20260504214522 38 344 0.0 2.0 0.00 0.01 0.01 78 1012.4
20260504213021 39 328 1.0 4.0 0.00 0.01 0.01 77 1012.4
20260504211518 39 355 1.0 4.0 0.00 0.01 0.01 78 1012.3
20260504210020 39 331 3.0 5.0 0.00 0.01 0.01 77 1012.3
20260504204516 39 328 2.0 5.0 0.00 0.01 0.01 75 1012.2
20260504203014 39 321 4.0 12.0 0.00 0.01 0.01 73 1012.2
20260504201512 40 350 6.0 13.0 0.00 0.01 0.01 71 1012.0
20260504200012 40 5 7.0 14.0 0.00 0.01 0.01 70 1011.9
20260504194508 40 323 4.0 9.0 0.00 0.01 0.01 71 1011.8